Fayetteville, AR

1:16 AM CDT on March 26, 2017 (GMT -0500)
Drake

Weather History for KFYV - February, 2013

Change the Weather History Date:

Saturday, February 9, 2013

  Actual Average Record
Temperature  
Mean Temperature 39 °F 38 °F  
Max Temperature 49 °F 50 °F 75 °F (1957)
Min Temperature 28 °F 27 °F -10 °F (1971)
Degree Days  
Heating Degree Days 26 27  
Month to date heating degree days 203 248  
Since 1 July heating degree days 2536 2842  
Moisture  
Dew Point 33 °F    
Average Humidity 71    
Maximum Humidity 100    
Minimum Humidity 42    
Precipitation  
Precipitation 0.09 in 0.10 in 0.69 in (2011)
Month to date precipitation 0.47 0.81  
Year to date precipitation 3.50 3.65  
Sea Level Pressure  
Sea Level Pressure 30.07 in    
Wind  
Wind Speed 8 mph (ESE)    
Max Wind Speed 21 mph    
Max Gust Speed 28 mph    
Visibility 9 miles    
Events Rain    
T = Trace of Precipitation, MM = Missing Value Source: NWS Daily Summary

Daily Weather History Graph

Daily Weather History Graph

Search for Another Location

Airport or City:

Trip Planner

Search our weather history database for the weather conditions in past years. The results will help you decide how hot, cold, wet, or windy it might be!

Date:

Astronomy

Feb. 09, 2013 Rise Set
Actual Time 7:09 AM CST 5:52 PM CST
Civil Twilight 6:43 AM CST 6:18 PM CST
Nautical Twilight 6:13 AM CST 6:49 PM CST
Astronomical Twilight 5:43 AM CST 7:19 PM CST
Moon 6:22 AM CST (2/9) 5:34 PM CST (2/9)
Length of Visible Light 11h 35m
Length of Day
10h 42m
Waning Crescent, 0% of the Moon is Illuminated
Feb 9
Waning Crescent
Feb 10
New
Feb 17
First Quarter
Feb 25
Full
Mar 4
Last Quarter

Hourly Weather History & Observations

Time (CST) Temp. Windchill Dew Point Humidity Pressure Visibility Wind Dir Wind Speed Gust Speed Precip Events Conditions
12:53 AM 28.9 °F - 28.0 °F 96% 30.23 in 10.0 mi Calm Calm - N/A   Clear
1:53 AM 28.9 °F - 28.0 °F 96% 30.22 in 8.0 mi Calm Calm - N/A   Clear
2:53 AM 32.0 °F 26.4 °F 28.9 °F 88% 30.21 in 10.0 mi ENE 5.8 mph - N/A   Clear
3:53 AM 30.0 °F 26.5 °F 28.0 °F 92% 30.20 in 10.0 mi East 3.5 mph - N/A   Clear
4:53 AM 33.1 °F 28.7 °F 30.0 °F 89% 30.21 in 7.0 mi East 4.6 mph - N/A   Clear
5:53 AM 33.1 °F 28.7 °F 30.0 °F 89% 30.20 in 7.0 mi East 4.6 mph - N/A   Clear
6:53 AM 33.1 °F 27.7 °F 30.0 °F 89% 30.22 in 8.0 mi East 5.8 mph - N/A   Clear
7:53 AM 33.1 °F 27.7 °F 30.0 °F 89% 30.21 in 6.0 mi East 5.8 mph - N/A   Clear
8:53 AM 35.6 °F 29.9 °F 30.2 °F 81% 30.17 in 10.0 mi East 6.9 mph - N/A   Clear
9:53 AM 39.0 °F 34.8 °F 28.9 °F 67% 30.19 in 10.0 mi ESE 5.8 mph - N/A   Clear
10:53 AM 41.0 °F 35.2 °F 28.0 °F 60% 30.17 in 10.0 mi East 9.2 mph - N/A   Partly Cloudy
11:53 AM 44.1 °F 40.8 °F 28.0 °F 53% 30.14 in 10.0 mi Variable 5.8 mph - N/A   Partly Cloudy
12:53 PM 45.0 °F 40.1 °F 28.0 °F 52% 30.09 in 10.0 mi East 9.2 mph - N/A   Scattered Clouds
1:53 PM 48.0 °F - 26.1 °F 42% 30.04 in 10.0 mi SSE 6.9 mph - N/A   Mostly Cloudy
2:53 PM 46.0 °F 41.9 °F 33.1 °F 61% 30.03 in 10.0 mi South 8.1 mph - 0.00 in   Overcast
3:53 PM 46.0 °F 42.5 °F 36.0 °F 68% 29.99 in 10.0 mi South 6.9 mph - 0.00 in Rain Light Rain
4:25 PM 44.6 °F 38.8 °F 37.4 °F 76% 30.02 in 10.0 mi South 11.5 mph - 0.00 in Rain Light Rain
4:53 PM 43.0 °F 37.7 °F 37.9 °F 82% 30.02 in 6.0 mi South 9.2 mph - 0.03 in Rain Light Rain
5:53 PM 42.1 °F 36.6 °F 39.0 °F 89% 29.97 in 10.0 mi East 9.2 mph - 0.04 in Rain Light Rain
6:53 PM 39.9 °F 34.5 °F 37.9 °F 93% 29.92 in 9.0 mi East 8.1 mph - 0.01 in   Overcast
7:53 PM 44.1 °F 37.7 °F 39.9 °F 85% 29.92 in 8.0 mi SE 12.7 mph 21.9 mph 0.00 in Rain Light Rain
8:53 PM 45.0 °F 40.1 °F 39.9 °F 82% 29.91 in 10.0 mi SSE 9.2 mph 18.4 mph 0.00 in   Overcast
9:53 PM 45.0 °F 37.6 °F 41.0 °F 86% 29.89 in 10.0 mi South 17.3 mph 24.2 mph 0.01 in   Overcast
10:39 PM 44.6 °F 38.1 °F 41.0 °F 87% 29.87 in 10.0 mi South 13.8 mph 25.3 mph 0.00 in   Overcast
10:53 PM 46.0 °F 39.9 °F 42.1 °F 86% 29.87 in 10.0 mi SSE 13.8 mph 27.6 mph 0.00 in   Overcast
11:53 PM 46.9 °F - 43.0 °F 86% 29.84 in 10.0 mi SE 15.0 mph 27.6 mph N/A   Overcast